Total_Precipitation_Accumulation
2.54 2.68 2.47 2.57 2.35 2.49 2.86 3.17 3.20 3.40 3.66 3.59 3.16 2.92 2.95 2.89 2.65 2.57 2.78 3.04 3.08 3.01 3.20 3.29 2.97 2.81 2.73 2.37 2.06 1.93 1.78 1.66 1.48 1.22 1.04 0.97 0.87 0.68 0.50 0.43 0.42 0.44 0.42
2.75 2.84 2.70 2.68 2.42 2.44 2.76 3.13 3.22 3.54 3.62 3.67 3.16 2.83 2.80 2.78 2.50 2.34 2.44 2.93 2.99 2.87 2.94 3.21 3.30 3.23 3.10 2.77 2.46 2.18 1.96 1.82 1.67 1.37 1.11 1.01 0.95 0.85 0.75 0.63 0.55 0.52 0.45
2.98 3.13 3.04 2.68 2.48 2.59 2.82 2.85 3.01 3.50 3.39 3.37 3.26 3.15 3.08 2.89 2.59 2.50 2.42 2.60 2.51 2.63 2.81 2.95 3.20 3.43 3.51 3.38 3.14 2.79 2.43 2.07 1.78 1.46 1.20 1.07 0.99 0.89 0.83 0.77 0.69 0.65 0.57
2.68 2.92 2.68 2.31 2.40 2.64 2.83 2.85 2.87 3.25 3.41 3.47 3.52 3.36 3.19 2.99 2.58 2.44 2.39 2.34 2.34 2.10 2.37 2.68 3.02 3.31 3.70 3.92 3.96 3.84 3.38 2.67 2.08 1.69 1.38 1.24 1.14 0.99 0.82 0.76 0.77 0.75 0.62
1.87 2.18 2.15 2.08 2.10 2.37 2.43 2.14 2.41 2.75 3.00 3.14 2.95 2.85 2.54 2.32 2.19 2.03 1.99 1.90 2.09 2.23 2.37 2.37 2.72 3.01 3.59 4.33 4.82 4.81 4.33 3.52 2.72 2.26 1.96 1.70 1.53 1.29 1.00 0.86 0.85 0.82 0.73
1.66 1.90 1.93 1.78 1.74 1.93 2.01 2.16 2.49 2.59 2.52 2.59 2.27 2.24 2.20 2.00 1.96 1.88 1.67 1.69 1.86 1.85 2.04 2.27 2.59 2.47 2.99 3.81 4.45 4.75 4.65 4.16 3.38 2.79 2.47 2.31 2.20 1.84 1.37 1.15 1.08 0.96 0.86
1.79 1.99 1.83 1.86 1.74 1.76 1.82 1.90 2.14 2.24 2.04 2.21 2.53 2.33 2.02 1.78 1.76 1.66 1.58 1.70 1.74 1.82 1.96 2.35 2.61 2.70 2.60 2.64 2.97 3.65 4.27 4.54 4.29 3.66 3.07 2.72 2.60 2.23 1.70 1.48 1.30 1.18 1.14
1.78 1.68 1.86 1.69 1.61 1.79 1.78 1.86 2.09 2.07 1.85 2.00 2.37 2.48 2.20 2.10 1.73 1.25 1.44 1.55 1.61 1.88 1.97 1.99 2.24 2.68 2.71 2.88 2.27 2.52 3.52 4.24 4.73 4.71 4.08 3.39 2.99 2.56 2.09 1.88 1.67 1.49 1.40
1.54 1.58 1.56 1.46 1.55 1.48 1.67 1.84 1.94 2.10 2.07 1.88 1.89 2.25 2.20 2.14 1.91 1.46 1.25 1.32 1.57 1.84 1.82 1.88 1.93 2.26 2.54 2.94 2.82 2.35 2.52 3.01 4.00 4.89 4.89 4.10 3.21 2.60 2.32 2.22 2.16 1.94 1.75
1.53 1.51 1.44 1.53 1.56 1.44 1.70 1.48 1.62 1.95 2.10 1.90 1.86 1.80 1.84 1.99 2.03 1.87 1.59 1.36 1.48 1.57 1.68 1.72 1.88 2.18 2.40 2.70 2.79 2.23 1.89 2.10 2.96 4.05 4.70 4.60 3.88 3.04 2.57 2.63 2.86 2.72 2.36
1.59 1.36 1.41 1.61 1.66 1.53 1.56 1.56 1.73 1.75 1.81 1.86 1.83 1.80 1.95 1.98 1.82 1.87 1.86 1.73 1.62 1.36 1.49 1.76 1.97 2.09 2.24 2.49 2.76 2.44 2.25 2.05 2.11 2.60 3.23 3.78 4.00 3.69 3.32 3.29 3.62 3.81 3.63
1.53 1.41 1.50 1.75 1.74 1.69 1.66 1.62 1.63 1.66 1.83 1.95 1.92 1.80 1.86 1.94 1.93 2.03 1.84 1.77 1.80 1.56 1.69 1.96 2.04 2.09 2.08 2.26 2.29 2.27 2.18 2.07 1.98 1.96 2.17 2.55 3.05 3.38 3.43 3.59 4.00 4.39 4.53
1.34 1.42 1.48 1.68 1.68 1.68 1.60 1.76 1.78 1.69 1.80 1.89 1.89 1.85 1.76 1.69 1.81 1.99 2.03 1.87 1.86 1.79 2.00 2.02 2.04 2.05 1.97 2.23 2.35 2.24 1.91 1.88 1.75 1.64 1.71 1.90 2.16 2.59 3.02 3.31 3.74 4.19 4.55
1.19 1.22 1.32 1.40 1.47 1.52 1.48 1.83 1.73 1.76 1.83 1.76 1.69 2.01 1.91 1.66 1.82 1.95 2.16 2.34 2.21 2.09 2.18 2.13 2.12 2.10 2.23 2.32 2.36 2.27 1.95 1.95 1.75 1.59 1.49 1.48 1.57 1.78 2.13 2.45 2.76 3.10 3.48
1.25 1.28 1.33 1.51 1.63 1.65 1.68 1.89 1.83 1.81 1.93 1.76 1.76 1.93 1.89 1.85 1.85 1.83 2.17 2.48 2.60 2.41 2.30 2.21 2.01 1.92 2.00 2.11 2.14 1.86 1.70 1.78 1.67 1.52 1.44 1.40 1.39 1.47 1.60 1.73 1.82 1.90 2.03
1.39 1.48 1.51 1.63 1.71 1.66 1.65 1.82 1.82 1.91 1.98 1.88 1.87 1.93 1.90 1.89 1.98 1.92 2.06 2.29 2.48 2.65 2.49 2.08 1.91 1.83 1.80 1.64 1.73 1.55 1.54 1.72 1.60 1.46 1.42 1.41 1.41 1.42 1.41 1.44 1.49 1.52 1.55
1.44 1.50 1.60 1.70 1.68 1.72 1.81 1.92 1.79 1.86 1.97 2.15 2.09 2.08 2.14 2.23 2.20 2.12 2.19 2.26 2.39 2.66 2.63 2.17 2.06 2.06 1.93 1.73 1.65 1.57 1.53 1.62 1.63 1.71 1.56 1.46 1.36 1.29 1.27 1.27 1.30 1.36 1.41
1.65 1.64 1.71 1.75 1.60 1.62 1.81 1.89 1.87 1.90 1.95 2.02 2.21 2.43 2.39 2.42 2.35 2.21 2.30 2.25 2.31 2.60 2.53 2.31 2.32 2.32 2.27 2.06 1.91 1.75 1.57 1.55 1.63 1.85 1.61 1.46 1.38 1.30 1.27 1.28 1.26 1.25 1.26
1.92 2.00 1.98 1.82 1.71 1.68 1.76 1.88 1.97 1.99 2.02 2.09 2.23 2.33 2.37 2.52 2.41 2.31 2.25 2.21 2.29 2.46 2.55 2.39 2.35 2.50 2.42 2.19 2.04 1.80 1.60 1.65 1.49 1.63 1.60 1.52 1.48 1.39 1.33 1.27 1.25 1.23 1.20
1.98 2.11 2.06 1.98 1.93 1.84 1.71 1.68 1.74 1.83 2.00 2.16 2.20 2.13 2.22 2.44 2.50 2.48 2.30 2.26 2.36 2.49 2.53 2.47 2.41 2.52 2.54 2.48 2.32 2.09 1.97 1.81 1.63 1.51 1.58 1.49 1.46 1.40 1.32 1.25 1.20 1.19 1.20
1.92 2.07 2.12 2.12 2.07 1.91 1.68 1.72 1.86 1.86 2.04 2.08 2.02 1.91 1.89 2.10 2.34 2.42 2.21 2.20 2.33 2.35 2.36 2.39 2.40 2.45 2.50 2.64 2.53 2.25 2.01 1.87 1.64 1.46 1.48 1.38 1.33 1.25 1.28 1.29 1.22 1.14 1.07
2.31 2.34 2.27 2.21 2.12 1.77 1.85 1.87 1.86 1.92 2.05 2.07 2.03 1.94 1.81 1.78 1.81 1.94 2.07 2.19 2.31 2.28 2.28 2.43 2.59 2.63 2.63 2.63 2.62 2.41 2.15 1.92 1.76 1.55 1.59 1.58 1.50 1.43 1.26 1.16 1.21 1.13 1.05
2.67 2.70 2.58 2.40 2.24 2.15 2.05 1.82 1.76 1.69 1.76 1.81 1.88 1.87 1.59 1.43 1.54 1.47 1.65 1.81 1.93 2.01 2.04 2.20 2.36 2.46 2.57 2.71 2.75 2.53 2.34 2.14 1.90 1.70 1.67 1.55 1.44 1.44 1.33 1.27 1.35 1.19 1.12
2.58 2.62 2.56 2.43 2.31 2.22 2.08 1.72 1.63 1.44 1.50 1.54 1.60 1.60 1.55 1.47 1.44 1.50 1.51 1.50 1.49 1.57 1.68 1.70 1.83 2.07 2.32 2.53 2.68 2.59 2.48 2.20 1.91 1.69 1.63 1.51 1.36 1.33 1.27 1.29 1.40 1.29 1.17
2.32 2.22 2.19 2.19 2.16 2.19 2.11 1.76 1.57 1.40 1.50 1.53 1.56 1.58 1.61 1.54 1.65 1.53 1.47 1.51 1.53 1.54 1.58 1.62 1.65 1.81 2.08 2.25 2.35 2.42 2.37 2.23 1.98 1.75 1.67 1.66 1.48 1.38 1.32 1.20 1.20 1.26 1.14
2.24 2.18 2.08 2.08 2.07 2.06 2.07 1.70 1.55 1.44 1.53 1.55 1.59 1.60 1.60 1.49 1.51 1.37 1.31 1.44 1.46 1.48 1.53 1.53 1.55 1.58 1.66 1.98 2.29 2.12 2.12 2.15 1.95 1.68 1.44 1.50 1.48 1.47 1.37 1.10 0.98 0.98 0.96